Time,TemperatureF,DewpointF,PressureIn,WindDirection,WindDirectionDegrees,WindSpeedMPH,WindSpeedGustMPH,Humidity,HourlyPrecipIn,Conditions,Clouds,dailyrainin,SoftwareType,DateUTC
2013-03-31 00:00:00,44.0,25.0,30.03,ESE,108,4.0,4.0,47,0.00,,,0.00,Wunderground v.1.15,2013-03-31 04:00:00,
2013-03-31 00:03:00,44.0,25.0,30.03,ESE,105,4.0,4.0,47,0.00,,,0.00,Wunderground v.1.15,2013-03-31 04:03:00,
2013-03-31 00:09:00,44.0,24.5,30.02,ESE,102,5.0,5.0,46,0.00,,,0.00,Wunderground v.1.15,2013-03-31 04:09:00,
2013-03-31 00:12:00,44.0,24.5,30.02,ESE,113,4.0,5.0,46,0.00,,,0.00,Wunderground v.1.15,2013-03-31 04:12:00,
2013-03-31 00:17:00,43.9,24.4,30.02,ESE,111,5.0,7.0,46,0.00,,,0.00,Wunderground v.1.15,2013-03-31 04:17:00,
2013-03-31 00:22:00,43.6,24.2,30.02,ESE,107,4.0,5.0,46,0.00,,,0.00,Wunderground v.1.15,2013-03-31 04:22:00,
2013-03-31 00:28:00,43.3,24.9,30.02,ESE,108,4.0,5.0,48,0.00,,,0.00,Wunderground v.1.15,2013-03-31 04:28:00,
2013-03-31 00:34:00,43.2,24.8,30.02,ESE,109,3.0,4.0,48,0.00,,,0.00,Wunderground v.1.15,2013-03-31 04:34:00,
2013-03-31 00:39:00,43.2,24.8,30.02,ESE,109,5.0,5.0,48,0.00,,,0.00,Wunderground v.1.15,2013-03-31 04:39:00,
2013-03-31 00:44:00,43.2,25.3,30.01,ESE,107,4.0,5.0,49,0.00,,,0.00,Wunderground v.1.15,2013-03-31 04:44:00,
2013-03-31 00:49:00,43.2,25.3,30.01,ESE,105,4.0,5.0,49,0.00,,,0.00,Wunderground v.1.15,2013-03-31 04:49:00,
2013-03-31 00:55:00,43.1,25.7,30.01,ESE,108,4.0,6.0,50,0.00,,,0.00,Wunderground v.1.15,2013-03-31 04:55:00,
2013-03-31 01:01:00,43.1,25.7,30.00,ESE,107,5.0,5.0,50,0.00,,,0.00,Wunderground v.1.15,2013-03-31 05:01:00,
2013-03-31 01:07:00,43.4,26.0,30.00,ESE,109,4.0,7.0,50,0.00,,,0.00,Wunderground v.1.15,2013-03-31 05:07:00,
2013-03-31 01:12:00,43.6,26.2,30.00,ESE,110,5.0,5.0,50,0.00,,,0.00,Wunderground v.1.15,2013-03-31 05:12:00,
2013-03-31 01:17:00,43.8,26.3,30.00,ESE,111,5.0,7.0,50,0.00,,,0.00,Wunderground v.1.15,2013-03-31 05:17:00,
2013-03-31 01:23:00,43.8,26.3,30.00,ESE,110,4.0,5.0,50,0.00,,,0.00,Wunderground v.1.15,2013-03-31 05:23:00,
2013-03-31 01:29:00,43.7,26.7,30.00,ESE,111,5.0,5.0,51,0.00,,,0.00,Wunderground v.1.15,2013-03-31 05:29:00,
2013-03-31 01:34:00,43.6,26.2,29.99,ESE,111,7.0,8.0,50,0.00,,,0.00,Wunderground v.1.15,2013-03-31 05:34:00,
2013-03-31 01:39:00,43.5,26.1,29.99,ESE,109,5.0,8.0,50,0.00,,,0.00,Wunderground v.1.15,2013-03-31 05:39:00,
2013-03-31 01:44:00,43.4,26.5,29.99,ESE,109,4.0,7.0,51,0.00,,,0.00,Wunderground v.1.15,2013-03-31 05:44:00,
2013-03-31 01:50:00,43.4,26.5,29.99,ESE,107,4.0,5.0,51,0.00,,,0.00,Wunderground v.1.15,2013-03-31 05:50:00,
2013-03-31 01:56:00,43.4,26.0,29.99,ESE,111,7.0,7.0,50,0.00,,,0.00,Wunderground v.1.15,2013-03-31 05:56:00,
2013-03-31 02:01:00,43.4,26.0,29.98,ESE,107,7.0,7.0,50,0.00,,,0.00,Wunderground v.1.15,2013-03-31 06:01:00,
2013-03-31 02:07:00,43.5,26.1,29.98,ESE,109,7.0,8.0,50,0.00,,,0.00,Wunderground v.1.15,2013-03-31 06:07:00,
2013-03-31 02:12:00,43.6,25.7,29.98,ESE,106,5.0,8.0,49,0.00,,,0.00,Wunderground v.1.15,2013-03-31 06:12:00,
2013-03-31 02:17:00,43.5,26.1,29.97,ESE,107,5.0,8.0,50,0.00,,,0.00,Wunderground v.1.15,2013-03-31 06:17:00,
2013-03-31 02:22:00,43.6,25.7,29.97,ESE,113,3.0,8.0,49,0.00,,,0.00,Wunderground v.1.15,2013-03-31 06:22:00,
2013-03-31 02:27:00,43.5,25.6,29.96,ESE,113,7.0,8.0,49,0.00,,,0.00,Wunderground v.1.15,2013-03-31 06:27:00,
2013-03-31 02:32:00,43.6,25.7,29.96,ESE,110,4.0,8.0,49,0.00,,,0.00,Wunderground v.1.15,2013-03-31 06:32:00,
2013-03-31 02:38:00,43.5,26.1,29.95,ESE,111,5.0,8.0,50,0.00,,,0.00,Wunderground v.1.15,2013-03-31 06:38:00,
2013-03-31 02:43:00,43.5,26.1,29.95,ESE,114,5.0,7.0,50,0.00,,,0.00,Wunderground v.1.15,2013-03-31 06:43:00,
2013-03-31 02:48:00,43.6,26.2,29.95,ESE,111,5.0,7.0,50,0.00,,,0.00,Wunderground v.1.15,2013-03-31 06:48:00,
2013-03-31 02:53:00,43.5,26.1,29.94,ESE,115,7.0,7.0,50,0.00,,,0.00,Wunderground v.1.15,2013-03-31 06:53:00,
2013-03-31 02:58:00,43.5,26.1,29.94,ESE,118,5.0,7.0,50,0.00,,,0.00,Wunderground v.1.15,2013-03-31 06:58:00,
2013-03-31 03:03:00,43.5,26.1,29.94,ESE,115,4.0,7.0,50,0.00,,,0.00,Wunderground v.1.15,2013-03-31 07:03:00,
2013-03-31 03:08:00,43.5,26.1,29.94,ESE,115,5.0,7.0,50,0.00,,,0.00,Wunderground v.1.15,2013-03-31 07:08:00,
2013-03-31 03:13:00,43.5,26.6,29.93,ESE,111,3.0,7.0,51,0.00,,,0.00,Wunderground v.1.15,2013-03-31 07:13:00,
2013-03-31 03:18:00,43.6,26.2,29.93,ESE,113,4.0,7.0,50,0.00,,,0.00,Wunderground v.1.15,2013-03-31 07:18:00,
2013-03-31 03:23:00,43.9,26.4,29.93,ESE,111,4.0,7.0,50,0.00,,,0.00,Wunderground v.1.15,2013-03-31 07:23:00,
2013-03-31 03:28:00,44.0,26.0,29.93,ESE,112,4.0,7.0,49,0.00,,,0.00,Wunderground v.1.15,2013-03-31 07:28:00,
2013-03-31 03:33:00,44.0,26.0,29.93,ESE,110,5.0,7.0,49,0.00,,,0.00,Wunderground v.1.15,2013-03-31 07:33:00,
2013-03-31 03:38:00,44.0,26.0,29.93,ESE,111,3.0,7.0,49,0.00,,,0.00,Wunderground v.1.15,2013-03-31 07:38:00,
2013-03-31 03:43:00,44.2,26.2,29.92,ESE,117,4.0,7.0,49,0.00,,,0.00,Wunderground v.1.15,2013-03-31 07:43:00,
2013-03-31 03:48:00,44.3,26.8,29.92,ESE,120,4.0,7.0,50,0.00,,,0.00,Wunderground v.1.15,2013-03-31 07:48:00,
2013-03-31 03:53:00,44.5,26.5,29.92,ESE,107,4.0,7.0,49,0.00,,,0.00,Wunderground v.1.15,2013-03-31 07:53:00,
2013-03-31 03:58:00,44.6,26.6,29.91,ESE,112,5.0,7.0,49,0.00,,,0.00,Wunderground v.1.15,2013-03-31 07:58:00,
2013-03-31 04:03:00,44.7,26.7,29.91,ESE,113,4.0,7.0,49,0.00,,,0.00,Wunderground v.1.15,2013-03-31 08:03:00,
2013-03-31 04:08:00,44.6,26.6,29.91,ESE,113,2.0,7.0,49,0.00,,,0.00,Wunderground v.1.15,2013-03-31 08:08:00,
2013-03-31 04:14:00,44.4,26.9,29.91,ESE,111,5.0,5.0,50,0.00,,,0.00,Wunderground v.1.15,2013-03-31 08:14:00,
2013-03-31 04:19:00,44.3,26.3,29.91,ESE,117,4.0,7.0,49,0.00,,,0.00,Wunderground v.1.15,2013-03-31 08:19:00,
2013-03-31 04:24:00,44.3,26.3,29.91,ESE,109,3.0,5.0,49,0.00,,,0.00,Wunderground v.1.15,2013-03-31 08:24:00,
2013-03-31 04:29:00,44.3,26.3,29.91,ESE,109,5.0,5.0,49,0.00,,,0.00,Wunderground v.1.15,2013-03-31 08:29:00,
2013-03-31 04:34:00,44.4,26.4,29.90,ESE,107,4.0,7.0,49,0.00,,,0.00,Wunderground v.1.15,2013-03-31 08:34:00,
2013-03-31 04:39:00,44.3,26.3,29.90,ESE,103,5.0,7.0,49,0.00,,,0.00,Wunderground v.1.15,2013-03-31 08:39:00,
2013-03-31 04:44:00,44.4,26.4,29.90,ESE,117,4.0,7.0,49,0.00,,,0.00,Wunderground v.1.15,2013-03-31 08:44:00,
2013-03-31 04:49:00,44.3,26.3,29.90,ESE,111,4.0,7.0,49,0.00,,,0.00,Wunderground v.1.15,2013-03-31 08:49:00,
2013-03-31 04:54:00,44.3,26.3,29.90,ESE,119,3.0,5.0,49,0.00,,,0.00,Wunderground v.1.15,2013-03-31 08:54:00,
2013-03-31 04:59:00,44.3,26.3,29.90,ESE,111,4.0,7.0,49,0.00,,,0.00,Wunderground v.1.15,2013-03-31 08:59:00,
2013-03-31 05:04:00,44.3,26.8,29.90,ESE,115,4.0,5.0,50,0.00,,,0.00,Wunderground v.1.15,2013-03-31 09:04:00,
2013-03-31 05:09:00,44.4,26.9,29.90,ESE,117,3.0,5.0,50,0.00,,,0.00,Wunderground v.1.15,2013-03-31 09:09:00,
2013-03-31 05:15:00,44.4,26.9,29.89,ESE,113,4.0,5.0,50,0.00,,,0.00,Wunderground v.1.15,2013-03-31 09:15:00,
2013-03-31 05:20:00,44.5,27.0,29.89,ESE,120,2.0,4.0,50,0.00,,,0.00,Wunderground v.1.15,2013-03-31 09:20:00,
2013-03-31 05:25:00,44.6,27.1,29.89,ESE,121,4.0,5.0,50,0.00,,,0.00,Wunderground v.1.15,2013-03-31 09:25:00,
2013-03-31 05:30:00,44.8,27.3,29.89,ESE,121,4.0,4.0,50,0.00,,,0.00,Wunderground v.1.15,2013-03-31 09:30:00,
2013-03-31 05:35:00,44.9,27.4,29.89,ESE,121,4.0,5.0,50,0.00,,,0.00,Wunderground v.1.15,2013-03-31 09:35:00,
2013-03-31 05:40:00,44.9,27.4,29.89,ESE,120,5.0,5.0,50,0.00,,,0.00,Wunderground v.1.15,2013-03-31 09:40:00,
2013-03-31 05:45:00,45.0,27.5,29.89,ESE,123,2.0,5.0,50,0.00,,,0.00,Wunderground v.1.15,2013-03-31 09:45:00,
2013-03-31 05:50:00,45.1,27.6,29.89,SE,125,3.0,4.0,50,0.00,,,0.00,Wunderground v.1.15,2013-03-31 09:50:00,
2013-03-31 05:55:00,45.1,27.6,29.89,ESE,122,4.0,7.0,50,0.00,,,0.00,Wunderground v.1.15,2013-03-31 09:55:00,
2013-03-31 06:00:00,45.1,27.6,29.88,ESE,114,4.0,4.0,50,0.00,,,0.00,Wunderground v.1.15,2013-03-31 10:00:00,
2013-03-31 06:05:00,45.2,27.6,29.88,SE,129,5.0,5.0,50,0.00,,,0.00,Wunderground v.1.15,2013-03-31 10:05:00,
2013-03-31 06:10:00,45.2,27.6,29.88,ESE,119,3.0,5.0,50,0.00,,,0.00,Wunderground v.1.15,2013-03-31 10:10:00,
2013-03-31 06:15:00,45.2,27.6,29.88,ESE,123,5.0,5.0,50,0.00,,,0.00,Wunderground v.1.15,2013-03-31 10:15:00,
2013-03-31 06:20:00,45.3,27.7,29.88,SE,126,3.0,4.0,50,0.00,,,0.00,Wunderground v.1.15,2013-03-31 10:20:00,
2013-03-31 06:25:00,45.4,27.8,29.88,SE,134,4.0,5.0,50,0.00,,,0.00,Wunderground v.1.15,2013-03-31 10:25:00,
2013-03-31 06:30:00,45.4,27.8,29.88,SE,130,3.0,4.0,50,0.00,,,0.00,Wunderground v.1.15,2013-03-31 10:30:00,
2013-03-31 06:35:00,45.4,27.8,29.87,ESE,109,2.0,5.0,50,0.00,,,0.00,Wunderground v.1.15,2013-03-31 10:35:00,
2013-03-31 06:40:00,45.4,28.3,29.87,East,100,5.0,5.0,51,0.00,,,0.00,Wunderground v.1.15,2013-03-31 10:40:00,
2013-03-31 06:45:00,45.3,27.7,29.88,SSE,154,3.0,5.0,50,0.00,,,0.00,Wunderground v.1.15,2013-03-31 10:45:00,
2013-03-31 06:50:00,45.1,28.0,29.88,ESE,113,1.0,4.0,51,0.00,,,0.00,Wunderground v.1.15,2013-03-31 10:50:00,
2013-03-31 06:55:00,45.2,28.1,29.88,SE,129,1.0,5.0,51,0.00,,,0.00,Wunderground v.1.15,2013-03-31 10:55:00,
2013-03-31 07:00:00,45.2,28.6,29.88,SE,140,1.0,3.0,52,0.00,,,0.00,Wunderground v.1.15,2013-03-31 11:00:00,
2013-03-31 07:07:00,45.4,28.3,29.88,SE,128,4.0,4.0,51,0.00,,,0.00,Wunderground v.1.15,2013-03-31 11:07:00,
2013-03-31 07:12:00,45.4,28.3,29.88,SE,143,1.0,5.0,51,0.00,,,0.00,Wunderground v.1.15,2013-03-31 11:12:00,
2013-03-31 07:17:00,45.8,28.7,29.88,SSE,150,3.0,5.0,51,0.00,,,0.00,Wunderground v.1.15,2013-03-31 11:17:00,
2013-03-31 07:22:00,46.1,29.4,29.89,SE,126,1.0,5.0,52,0.00,,,0.00,Wunderground v.1.15,2013-03-31 11:22:00,
2013-03-31 07:27:00,46.4,29.2,29.89,SE,138,3.0,5.0,51,0.00,,,0.00,Wunderground v.1.15,2013-03-31 11:27:00,
2013-03-31 07:32:00,46.4,30.2,29.89,SSE,153,5.0,10.0,53,0.00,,,0.00,Wunderground v.1.15,2013-03-31 11:32:00,
2013-03-31 07:37:00,46.5,31.6,29.89,South,183,2.0,13.0,56,0.00,,,0.00,Wunderground v.1.15,2013-03-31 11:37:00,
2013-03-31 07:42:00,46.4,32.8,29.89,South,171,3.0,5.0,59,0.00,,,0.00,Wunderground v.1.15,2013-03-31 11:42:00,
2013-03-31 07:47:00,46.3,33.6,29.89,SW,215,4.0,8.0,61,0.00,,,0.00,Wunderground v.1.15,2013-03-31 11:47:00,
2013-03-31 07:52:00,46.0,34.1,29.89,SSW,210,6.0,8.0,63,0.00,,,0.00,Wunderground v.1.15,2013-03-31 11:52:00,
2013-03-31 07:57:00,45.7,35.0,29.89,SSE,167,6.0,8.0,66,0.00,,,0.00,Wunderground v.1.15,2013-03-31 11:57:00,
2013-03-31 08:02:00,45.4,35.5,29.89,South,169,2.0,3.0,68,0.00,,,0.00,Wunderground v.1.15,2013-03-31 12:02:00,
2013-03-31 08:07:00,45.1,36.3,29.89,SSW,212,4.0,6.0,71,0.00,,,0.00,Wunderground v.1.15,2013-03-31 12:07:00,
2013-03-31 08:12:00,44.8,37.0,29.89,SSE,152,0.0,2.0,74,0.00,,,0.01,Wunderground v.1.15,2013-03-31 12:12:00,
2013-03-31 08:17:00,44.4,37.3,29.88,SSE,152,0.0,2.0,76,0.00,,,0.01,Wunderground v.1.15,2013-03-31 12:17:00,
2013-03-31 08:22:00,44.0,37.9,29.88,SSE,152,0.0,1.0,79,0.00,,,0.01,Wunderground v.1.15,2013-03-31 12:22:00,
2013-03-31 08:27:00,43.6,38.2,29.88,SSE,152,1.0,1.0,81,0.00,,,0.01,Wunderground v.1.15,2013-03-31 12:27:00,
2013-03-31 08:32:00,43.3,38.8,29.88,SSE,152,0.0,1.0,84,0.00,,,0.02,Wunderground v.1.15,2013-03-31 12:32:00,
2013-03-31 08:37:00,43.0,38.8,29.88,SSE,152,1.0,1.0,85,0.00,,,0.02,Wunderground v.1.15,2013-03-31 12:37:00,
2013-03-31 08:42:00,42.7,38.5,29.87,SSE,152,1.0,2.0,85,0.00,,,0.02,Wunderground v.1.15,2013-03-31 12:42:00,
2013-03-31 08:47:00,42.6,38.7,29.87,SE,136,1.0,4.0,86,0.04,,,0.03,Wunderground v.1.15,2013-03-31 12:47:00,
2013-03-31 08:52:00,42.5,38.9,29.87,SSE,162,3.0,3.0,87,0.04,,,0.03,Wunderground v.1.15,2013-03-31 12:52:00,
2013-03-31 08:57:00,42.6,39.0,29.86,SE,144,4.0,4.0,87,0.04,,,0.03,Wunderground v.1.15,2013-03-31 12:57:00,
2013-03-31 09:02:00,42.7,39.1,29.86,SSE,153,2.0,3.0,87,0.04,,,0.03,Wunderground v.1.15,2013-03-31 13:02:00,
2013-03-31 09:07:00,42.8,39.5,29.86,SE,136,2.0,3.0,88,0.00,,,0.03,Wunderground v.1.15,2013-03-31 13:07:00,
2013-03-31 09:12:00,42.9,39.6,29.86,SE,130,3.0,4.0,88,0.00,,,0.03,Wunderground v.1.15,2013-03-31 13:12:00,
2013-03-31 09:17:00,42.8,39.8,29.86,ESE,123,2.0,4.0,89,0.00,,,0.04,Wunderground v.1.15,2013-03-31 13:17:00,
2013-03-31 09:22:00,42.8,39.8,29.85,ESE,123,1.0,3.0,89,0.07,,,0.05,Wunderground v.1.15,2013-03-31 13:22:00,
2013-03-31 09:27:00,42.8,40.1,29.85,SE,128,3.0,3.0,90,0.07,,,0.05,Wunderground v.1.15,2013-03-31 13:27:00,
2013-03-31 09:33:00,42.7,40.0,29.85,SE,126,2.0,3.0,90,0.06,,,0.05,Wunderground v.1.15,2013-03-31 13:33:00,
2013-03-31 09:38:00,42.6,40.2,29.84,SE,126,2.0,3.0,91,0.04,,,0.05,Wunderground v.1.15,2013-03-31 13:38:00,
2013-03-31 09:43:00,42.5,40.1,29.84,SE,125,1.0,4.0,91,0.00,,,0.06,Wunderground v.1.15,2013-03-31 13:43:00,
2013-03-31 09:48:00,42.5,40.3,29.84,SE,125,1.0,4.0,92,0.00,,,0.06,Wunderground v.1.15,2013-03-31 13:48:00,
2013-03-31 09:53:00,42.4,40.2,29.83,ESE,116,3.0,3.0,92,0.06,,,0.07,Wunderground v.1.15,2013-03-31 13:53:00,
2013-03-31 09:58:00,42.3,40.4,29.83,ESE,116,2.0,3.0,93,0.06,,,0.07,Wunderground v.1.15,2013-03-31 13:58:00,
2013-03-31 10:03:00,42.2,40.3,29.83,ESE,116,3.0,4.0,93,0.05,,,0.07,Wunderground v.1.15,2013-03-31 14:03:00,
2013-03-31 10:08:00,42.2,40.3,29.83,ESE,116,2.0,4.0,93,0.04,,,0.07,Wunderground v.1.15,2013-03-31 14:08:00,
2013-03-31 10:13:00,42.2,40.3,29.82,ESE,116,0.0,3.0,93,0.00,,,0.07,Wunderground v.1.15,2013-03-31 14:13:00,
2013-03-31 10:18:00,42.2,40.6,29.82,ESE,116,0.0,3.0,94,0.00,,,0.07,Wunderground v.1.15,2013-03-31 14:18:00,
2013-03-31 10:23:00,42.3,40.7,29.82,ESE,116,0.0,3.0,94,0.00,,,0.07,Wunderground v.1.15,2013-03-31 14:23:00,
2013-03-31 10:28:00,42.3,40.7,29.82,ESE,116,2.0,3.0,94,0.00,,,0.07,Wunderground v.1.15,2013-03-31 14:28:00,
2013-03-31 10:33:00,42.4,40.8,29.82,ESE,116,2.0,3.0,94,0.00,,,0.07,Wunderground v.1.15,2013-03-31 14:33:00,
2013-03-31 10:38:00,42.5,40.9,29.82,ESE,116,2.0,3.0,94,0.00,,,0.07,Wunderground v.1.15,2013-03-31 14:38:00,
2013-03-31 10:43:00,42.5,41.2,29.81,ESE,116,2.0,3.0,95,0.00,,,0.07,Wunderground v.1.15,2013-03-31 14:43:00,
2013-03-31 10:48:00,42.7,41.4,29.81,ESE,116,1.0,3.0,95,0.00,,,0.07,Wunderground v.1.15,2013-03-31 14:48:00,
2013-03-31 10:53:00,42.7,41.4,29.81,ESE,116,0.0,3.0,95,0.00,,,0.07,Wunderground v.1.15,2013-03-31 14:53:00,
2013-03-31 10:58:00,42.8,41.2,29.80,ESE,116,0.0,3.0,94,0.00,,,0.07,Wunderground v.1.15,2013-03-31 14:58:00,
2013-03-31 11:03:00,42.9,41.3,29.80,ESE,116,3.0,3.0,94,0.00,,,0.07,Wunderground v.1.15,2013-03-31 15:03:00,
2013-03-31 11:08:00,43.2,41.6,29.80,ESE,116,0.0,3.0,94,0.00,,,0.07,Wunderground v.1.15,2013-03-31 15:08:00,
2013-03-31 11:13:00,43.7,42.1,29.80,ESE,115,0.0,2.0,94,0.00,,,0.07,Wunderground v.1.15,2013-03-31 15:13:00,
2013-03-31 11:18:00,44.1,42.5,29.80,SE,130,0.0,3.0,94,0.00,,,0.07,Wunderground v.1.15,2013-03-31 15:18:00,
2013-03-31 11:23:00,44.5,42.9,29.79,East,101,5.0,5.0,94,0.00,,,0.07,Wunderground v.1.15,2013-03-31 15:23:00,
2013-03-31 11:28:00,44.5,42.3,29.79,East,100,0.0,5.0,92,0.00,,,0.08,Wunderground v.1.15,2013-03-31 15:28:00,
2013-03-31 11:33:00,44.5,42.3,29.79,ESE,113,2.0,3.0,92,0.00,,,0.08,Wunderground v.1.15,2013-03-31 15:33:00,
2013-03-31 11:38:00,44.3,42.1,29.78,ESE,110,3.0,4.0,92,0.00,,,0.08,Wunderground v.1.15,2013-03-31 15:38:00,
2013-03-31 11:43:00,44.3,42.1,29.78,ESE,107,3.0,5.0,92,0.00,,,0.08,Wunderground v.1.15,2013-03-31 15:43:00,
2013-03-31 11:48:00,44.3,42.1,29.78,ESE,110,2.0,7.0,92,0.00,,,0.08,Wunderground v.1.15,2013-03-31 15:48:00,
2013-03-31 11:53:00,44.2,42.0,29.78,ESE,121,1.0,4.0,92,0.00,,,0.08,Wunderground v.1.15,2013-03-31 15:53:00,
2013-03-31 11:58:00,44.0,41.8,29.78,ESE,111,3.0,5.0,92,0.00,,,0.08,Wunderground v.1.15,2013-03-31 15:58:00,
2013-03-31 12:03:00,43.7,41.8,29.77,ESE,107,3.0,7.0,93,0.00,,,0.08,Wunderground v.1.15,2013-03-31 16:03:00,
2013-03-31 12:08:00,43.7,42.1,29.77,ESE,116,3.0,7.0,94,0.00,,,0.08,Wunderground v.1.15,2013-03-31 16:08:00,
2013-03-31 12:13:00,43.5,41.9,29.77,ESE,103,2.0,4.0,94,0.00,,,0.08,Wunderground v.1.15,2013-03-31 16:13:00,
2013-03-31 12:18:00,43.6,42.3,29.77,ESE,111,0.0,4.0,95,0.00,,,0.08,Wunderground v.1.15,2013-03-31 16:18:00,
2013-03-31 12:23:00,43.6,42.3,29.77,ESE,111,0.0,2.0,95,0.00,,,0.08,Wunderground v.1.15,2013-03-31 16:23:00,
2013-03-31 12:28:00,43.5,42.2,29.77,ESE,111,0.0,2.0,95,0.00,,,0.08,Wunderground v.1.15,2013-03-31 16:28:00,
2013-03-31 12:33:00,43.5,42.2,29.77,ESE,111,0.0,1.0,95,0.00,,,0.08,Wunderground v.1.15,2013-03-31 16:33:00,
2013-03-31 12:38:00,43.6,42.5,29.77,ESE,111,0.0,1.0,96,0.00,,,0.08,Wunderground v.1.15,2013-03-31 16:38:00,
2013-03-31 12:43:00,43.7,42.6,29.76,ESE,111,0.0,0.0,96,0.00,,,0.08,Wunderground v.1.15,2013-03-31 16:43:00,
2013-03-31 12:48:00,43.8,42.7,29.76,ESE,111,0.0,0.0,96,0.00,,,0.09,Wunderground v.1.15,2013-03-31 16:48:00,
2013-03-31 12:53:00,43.9,42.8,29.76,SE,126,0.0,3.0,96,0.00,,,0.09,Wunderground v.1.15,2013-03-31 16:53:00,
2013-03-31 12:59:00,44.0,42.9,29.76,SE,126,0.0,3.0,96,0.00,,,0.09,Wunderground v.1.15,2013-03-31 16:59:00,
2013-03-31 13:04:00,44.2,43.1,29.76,SW,231,1.0,3.0,96,0.00,,,0.09,Wunderground v.1.15,2013-03-31 17:04:00,
2013-03-31 13:09:00,44.3,43.2,29.75,SSW,196,0.0,3.0,96,0.00,,,0.09,Wunderground v.1.15,2013-03-31 17:09:00,
2013-03-31 13:14:00,44.4,43.3,29.75,SSW,194,0.0,1.0,96,0.00,,,0.09,Wunderground v.1.15,2013-03-31 17:14:00,
2013-03-31 13:19:00,44.6,43.8,29.75,SSW,202,4.0,5.0,97,0.00,,,0.09,Wunderground v.1.15,2013-03-31 17:19:00,
2013-03-31 13:24:00,44.6,43.8,29.75,SW,218,0.0,1.0,97,0.00,,,0.09,Wunderground v.1.15,2013-03-31 17:24:00,
2013-03-31 13:29:00,44.7,43.9,29.75,South,182,3.0,4.0,97,0.00,,,0.09,Wunderground v.1.15,2013-03-31 17:29:00,
2013-03-31 13:34:00,44.8,44.0,29.75,SSW,213,1.0,3.0,97,0.00,,,0.09,Wunderground v.1.15,2013-03-31 17:34:00,
2013-03-31 13:39:00,44.9,43.8,29.75,South,175,4.0,7.0,96,0.00,,,0.09,Wunderground v.1.15,2013-03-31 17:39:00,
2013-03-31 13:44:00,44.9,43.8,29.75,WSW,246,0.0,4.0,96,0.00,,,0.09,Wunderground v.1.15,2013-03-31 17:44:00,
2013-03-31 13:49:00,45.1,44.3,29.75,SW,230,3.0,4.0,97,0.00,,,0.09,Wunderground v.1.15,2013-03-31 17:49:00,
2013-03-31 13:54:00,45.1,44.3,29.75,WSW,239,6.0,10.0,97,0.00,,,0.09,Wunderground v.1.15,2013-03-31 17:54:00,
2013-03-31 13:59:00,45.0,44.2,29.75,SW,215,2.0,12.0,97,0.00,,,0.09,Wunderground v.1.15,2013-03-31 17:59:00,
2013-03-31 14:04:00,45.1,44.3,29.74,NW,317,2.0,8.0,97,0.00,,,0.09,Wunderground v.1.15,2013-03-31 18:04:00,
2013-03-31 14:10:00,45.0,44.2,29.74,WSW,240,0.0,9.0,97,0.00,,,0.09,Wunderground v.1.15,2013-03-31 18:10:00,
2013-03-31 14:15:00,45.0,44.2,29.74,South,179,0.0,6.0,97,0.00,,,0.09,Wunderground v.1.15,2013-03-31 18:15:00,
2013-03-31 14:20:00,45.0,44.2,29.75,South,174,4.0,4.0,97,0.00,,,0.09,Wunderground v.1.15,2013-03-31 18:20:00,
2013-03-31 14:25:00,45.0,44.5,29.74,South,187,0.0,5.0,98,0.00,,,0.09,Wunderground v.1.15,2013-03-31 18:25:00,
2013-03-31 14:30:00,45.1,44.3,29.75,SSW,198,2.0,4.0,97,0.00,,,0.09,Wunderground v.1.15,2013-03-31 18:30:00,
2013-03-31 14:35:00,45.1,44.6,29.74,SSW,198,4.0,7.0,98,0.00,,,0.09,Wunderground v.1.15,2013-03-31 18:35:00,
2013-03-31 14:40:00,45.1,44.6,29.74,WSW,242,3.0,3.0,98,0.00,,,0.09,Wunderground v.1.15,2013-03-31 18:40:00,
2013-03-31 14:45:00,45.2,44.7,29.74,West,269,5.0,8.0,98,0.00,,,0.09,Wunderground v.1.15,2013-03-31 18:45:00,
2013-03-31 14:50:00,45.1,44.6,29.74,SW,228,0.0,3.0,98,0.00,,,0.09,Wunderground v.1.15,2013-03-31 18:50:00,
2013-03-31 14:55:00,45.1,44.6,29.74,SW,236,3.0,14.0,98,0.00,,,0.09,Wunderground v.1.15,2013-03-31 18:55:00,
2013-03-31 15:00:00,45.1,44.6,29.75,WSW,245,1.0,3.0,98,0.00,,,0.09,Wunderground v.1.15,2013-03-31 19:00:00,
2013-03-31 15:05:00,45.1,44.6,29.75,SSW,204,0.0,9.0,98,0.00,,,0.09,Wunderground v.1.15,2013-03-31 19:05:00,
2013-03-31 15:10:00,45.1,44.6,29.75,WSW,254,3.0,5.0,98,0.00,,,0.09,Wunderground v.1.15,2013-03-31 19:10:00,
2013-03-31 15:15:00,45.1,44.6,29.75,NW,306,1.0,6.0,98,0.00,,,0.09,Wunderground v.1.15,2013-03-31 19:15:00,
2013-03-31 15:20:00,45.0,44.5,29.75,West,278,1.0,3.0,98,0.00,,,0.09,Wunderground v.1.15,2013-03-31 19:20:00,
2013-03-31 15:25:00,45.0,44.5,29.74,West,264,4.0,10.0,98,0.00,,,0.09,Wunderground v.1.15,2013-03-31 19:25:00,
2013-03-31 15:30:00,45.1,44.6,29.74,WSW,246,3.0,4.0,98,0.00,,,0.09,Wunderground v.1.15,2013-03-31 19:30:00,
2013-03-31 15:35:00,45.1,44.6,29.74,WSW,240,0.0,5.0,98,0.00,,,0.09,Wunderground v.1.15,2013-03-31 19:35:00,
2013-03-31 15:40:00,45.2,44.7,29.74,WNW,288,0.0,2.0,98,0.00,,,0.09,Wunderground v.1.15,2013-03-31 19:40:00,
2013-03-31 15:46:00,45.3,44.8,29.74,WSW,248,1.0,5.0,98,0.00,,,0.09,Wunderground v.1.15,2013-03-31 19:46:00,
2013-03-31 15:52:00,45.5,45.0,29.74,WSW,254,1.0,5.0,98,0.00,,,0.09,Wunderground v.1.15,2013-03-31 19:52:00,
2013-03-31 15:58:00,45.5,45.0,29.74,NW,325,1.0,5.0,98,0.00,,,0.09,Wunderground v.1.15,2013-03-31 19:58:00,
2013-03-31 16:04:00,45.5,44.7,29.74,WSW,247,2.0,5.0,97,0.00,,,0.09,Wunderground v.1.15,2013-03-31 20:04:00,
2013-03-31 16:09:00,45.5,44.7,29.74,SSW,203,2.0,5.0,97,0.00,,,0.09,Wunderground v.1.15,2013-03-31 20:09:00,
2013-03-31 16:15:00,45.5,44.7,29.74,West,268,2.0,5.0,97,0.00,,,0.09,Wunderground v.1.15,2013-03-31 20:15:00,
2013-03-31 16:21:00,45.6,44.8,29.74,WNW,294,3.0,5.0,97,0.00,,,0.09,Wunderground v.1.15,2013-03-31 20:21:00,
2013-03-31 16:27:00,45.6,44.8,29.73,NW,306,3.0,5.0,97,0.00,,,0.09,Wunderground v.1.15,2013-03-31 20:27:00,
2013-03-31 16:32:00,45.7,44.9,29.73,WSW,257,2.0,5.0,97,0.00,,,0.09,Wunderground v.1.15,2013-03-31 20:32:00,
2013-03-31 16:38:00,45.7,44.9,29.73,West,259,2.0,5.0,97,0.00,,,0.09,Wunderground v.1.15,2013-03-31 20:38:00,
2013-03-31 16:44:00,45.7,44.9,29.73,WSW,240,2.0,5.0,97,0.00,,,0.09,Wunderground v.1.15,2013-03-31 20:44:00,
2013-03-31 16:50:00,45.7,44.9,29.73,West,270,1.0,5.0,97,0.00,,,0.09,Wunderground v.1.15,2013-03-31 20:50:00,
2013-03-31 16:55:00,45.7,44.9,29.73,WNW,303,1.0,5.0,97,0.00,,,0.10,Wunderground v.1.15,2013-03-31 20:55:00,
2013-03-31 17:01:00,45.7,45.2,29.74,WSW,242,1.0,5.0,98,0.00,,,0.10,Wunderground v.1.15,2013-03-31 21:01:00,
2013-03-31 17:07:00,45.7,45.2,29.74,SSW,200,1.0,5.0,98,0.07,,,0.11,Wunderground v.1.15,2013-03-31 21:07:00,
2013-03-31 17:12:00,45.7,45.2,29.74,West,265,1.0,5.0,98,0.07,,,0.11,Wunderground v.1.15,2013-03-31 21:12:00,
2013-03-31 17:18:00,45.8,45.3,29.73,NW,316,1.0,5.0,98,0.04,,,0.11,Wunderground v.1.15,2013-03-31 21:18:00,
2013-03-31 17:23:00,45.8,45.3,29.74,SW,231,2.0,5.0,98,0.00,,,0.11,Wunderground v.1.15,2013-03-31 21:23:00,
2013-03-31 17:28:00,45.8,45.3,29.74,West,280,1.0,5.0,98,0.00,,,0.11,Wunderground v.1.15,2013-03-31 21:28:00,
2013-03-31 17:34:00,45.8,45.3,29.73,West,271,1.0,5.0,98,0.00,,,0.12,Wunderground v.1.15,2013-03-31 21:34:00,
2013-03-31 17:39:00,45.7,45.2,29.73,West,259,2.0,5.0,98,0.00,,,0.12,Wunderground v.1.15,2013-03-31 21:39:00,
2013-03-31 17:44:00,45.8,45.3,29.73,WNW,299,2.0,5.0,98,0.00,,,0.12,Wunderground v.1.15,2013-03-31 21:44:00,
2013-03-31 17:50:00,45.7,45.2,29.73,WSW,248,2.0,2.0,98,0.04,,,0.13,Wunderground v.1.15,2013-03-31 21:50:00,
2013-03-31 17:56:00,45.6,45.1,29.73,WSW,246,2.0,5.0,98,0.04,,,0.13,Wunderground v.1.15,2013-03-31 21:56:00,
2013-03-31 18:02:00,45.6,45.1,29.74,West,275,2.0,5.0,98,0.04,,,0.13,Wunderground v.1.15,2013-03-31 22:02:00,
2013-03-31 18:07:00,45.5,45.0,29.74,WSW,255,2.0,5.0,98,0.00,,,0.13,Wunderground v.1.15,2013-03-31 22:07:00,
2013-03-31 18:13:00,45.5,45.0,29.74,West,259,1.0,5.0,98,0.00,,,0.13,Wunderground v.1.15,2013-03-31 22:13:00,
2013-03-31 18:19:00,45.5,45.0,29.74,South,186,2.0,5.0,98,0.00,,,0.13,Wunderground v.1.15,2013-03-31 22:19:00,
2013-03-31 18:24:00,45.5,45.0,29.74,NW,315,2.0,5.0,98,0.00,,,0.13,Wunderground v.1.15,2013-03-31 22:24:00,
2013-03-31 18:29:00,45.6,45.1,29.75,WNW,285,2.0,5.0,98,0.00,,,0.13,Wunderground v.1.15,2013-03-31 22:29:00,
2013-03-31 18:34:00,45.7,45.2,29.74,WNW,295,2.0,5.0,98,0.00,,,0.13,Wunderground v.1.15,2013-03-31 22:34:00,
2013-03-31 18:39:00,45.7,45.2,29.75,WSW,253,2.0,5.0,98,0.00,,,0.13,Wunderground v.1.15,2013-03-31 22:39:00,
2013-03-31 18:45:00,45.6,45.1,29.75,WNW,292,1.0,5.0,98,0.00,,,0.13,Wunderground v.1.15,2013-03-31 22:45:00,
2013-03-31 18:51:00,45.5,45.0,29.75,NNW,344,2.0,5.0,98,0.00,,,0.13,Wunderground v.1.15,2013-03-31 22:51:00,
2013-03-31 18:56:00,45.5,45.0,29.75,NW,322,1.0,5.0,98,0.00,,,0.13,Wunderground v.1.15,2013-03-31 22:56:00,
2013-03-31 19:02:00,45.5,45.0,29.75,SW,230,1.0,5.0,98,0.00,,,0.13,Wunderground v.1.15,2013-03-31 23:02:00,
2013-03-31 19:07:00,45.4,44.9,29.75,West,259,2.0,5.0,98,0.00,,,0.13,Wunderground v.1.15,2013-03-31 23:07:00,
2013-03-31 19:12:00,45.4,44.9,29.75,NW,311,2.0,7.0,98,0.00,,,0.13,Wunderground v.1.15,2013-03-31 23:12:00,
2013-03-31 19:18:00,45.4,44.9,29.75,WSW,248,1.0,7.0,98,0.00,,,0.13,Wunderground v.1.15,2013-03-31 23:18:00,
2013-03-31 19:24:00,45.4,44.9,29.75,WNW,284,3.0,5.0,98,0.00,,,0.13,Wunderground v.1.15,2013-03-31 23:24:00,
2013-03-31 19:29:00,45.3,44.8,29.75,West,279,2.0,5.0,98,0.00,,,0.13,Wunderground v.1.15,2013-03-31 23:29:00,
2013-03-31 19:34:00,45.3,44.8,29.76,WSW,238,1.0,5.0,98,0.00,,,0.13,Wunderground v.1.15,2013-03-31 23:34:00,
2013-03-31 19:40:00,45.2,44.7,29.76,WNW,292,1.0,5.0,98,0.00,,,0.13,Wunderground v.1.15,2013-03-31 23:40:00,
2013-03-31 19:45:00,45.2,44.7,29.76,WSW,250,1.0,5.0,98,0.00,,,0.13,Wunderground v.1.15,2013-03-31 23:45:00,
2013-03-31 19:50:00,45.1,44.6,29.76,West,274,1.0,1.0,98,0.00,,,0.13,Wunderground v.1.15,2013-03-31 23:50:00,
2013-03-31 19:55:00,45.1,44.6,29.76,WNW,290,1.0,5.0,98,0.00,,,0.13,Wunderground v.1.15,2013-03-31 23:55:00,
2013-03-31 20:00:00,45.1,44.6,29.76,West,264,0.0,5.0,98,0.00,,,0.13,Wunderground v.1.15,2013-04-01 00:00:00,
2013-03-31 20:05:00,45.1,44.6,29.76,WNW,284,1.0,5.0,98,0.00,,,0.13,Wunderground v.1.15,2013-04-01 00:05:00,
2013-03-31 20:11:00,45.1,44.6,29.77,NNW,328,1.0,2.0,98,0.00,,,0.13,Wunderground v.1.15,2013-04-01 00:11:00,
2013-03-31 20:16:00,45.1,44.6,29.77,WSW,254,1.0,5.0,98,0.00,,,0.13,Wunderground v.1.15,2013-04-01 00:16:00,
2013-03-31 20:22:00,45.1,44.6,29.77,SW,236,1.0,5.0,98,0.00,,,0.13,Wunderground v.1.15,2013-04-01 00:22:00,
2013-03-31 20:27:00,45.1,44.6,29.77,WNW,296,1.0,5.0,98,0.00,,,0.13,Wunderground v.1.15,2013-04-01 00:27:00,
2013-03-31 20:33:00,45.1,44.6,29.77,WSW,249,1.0,5.0,98,0.00,,,0.13,Wunderground v.1.15,2013-04-01 00:33:00,
2013-03-31 20:38:00,45.2,44.7,29.77,South,184,2.0,5.0,98,0.00,,,0.13,Wunderground v.1.15,2013-04-01 00:38:00,
2013-03-31 20:43:00,45.1,44.6,29.77,SW,221,1.0,5.0,98,0.00,,,0.13,Wunderground v.1.15,2013-04-01 00:43:00,
2013-03-31 20:48:00,45.1,44.6,29.77,NNW,335,1.0,5.0,98,0.00,,,0.13,Wunderground v.1.15,2013-04-01 00:48:00,
2013-03-31 20:54:00,45.1,44.6,29.78,WSW,246,3.0,8.0,98,0.00,,,0.13,Wunderground v.1.15,2013-04-01 00:54:00,
2013-03-31 20:59:00,45.2,44.7,29.78,WSW,244,3.0,8.0,98,0.00,,,0.13,Wunderground v.1.15,2013-04-01 00:59:00,
2013-03-31 21:04:00,45.2,44.4,29.78,West,281,3.0,5.0,97,0.00,,,0.13,Wunderground v.1.15,2013-04-01 01:04:00,
2013-03-31 21:10:00,45.2,44.4,29.79,West,266,2.0,5.0,97,0.00,,,0.13,Wunderground v.1.15,2013-04-01 01:10:00,
2013-03-31 21:16:00,45.2,44.4,29.79,West,259,1.0,5.0,97,0.00,,,0.13,Wunderground v.1.15,2013-04-01 01:16:00,
2013-03-31 21:22:00,45.2,44.4,29.79,WSW,246,2.0,15.0,97,0.00,,,0.13,Wunderground v.1.15,2013-04-01 01:22:00,
2013-03-31 21:28:00,45.1,44.3,29.79,WSW,243,3.0,15.0,97,0.00,,,0.13,Wunderground v.1.15,2013-04-01 01:28:00,
2013-03-31 21:33:00,45.1,44.3,29.79,West,278,3.0,5.0,97,0.00,,,0.13,Wunderground v.1.15,2013-04-01 01:33:00,
2013-03-31 21:39:00,45.1,44.3,29.80,West,260,2.0,5.0,97,0.00,,,0.13,Wunderground v.1.15,2013-04-01 01:39:00,
2013-03-31 21:44:00,45.1,44.3,29.80,South,176,2.0,6.0,97,0.00,,,0.13,Wunderground v.1.15,2013-04-01 01:44:00,
2013-03-31 21:49:00,45.1,44.0,29.80,WSW,254,3.0,6.0,96,0.00,,,0.13,Wunderground v.1.15,2013-04-01 01:49:00,
2013-03-31 21:55:00,45.1,44.0,29.80,WSW,244,3.0,8.0,96,0.00,,,0.13,Wunderground v.1.15,2013-04-01 01:55:00,
2013-03-31 22:01:00,45.1,44.0,29.80,WSW,237,2.0,5.0,96,0.00,,,0.13,Wunderground v.1.15,2013-04-01 02:01:00,
2013-03-31 22:07:00,45.0,43.9,29.80,SW,228,2.0,5.0,96,0.00,,,0.13,Wunderground v.1.15,2013-04-01 02:07:00,
2013-03-31 22:13:00,45.0,43.9,29.80,West,277,2.0,5.0,96,0.00,,,0.13,Wunderground v.1.15,2013-04-01 02:13:00,
2013-03-31 22:18:00,45.0,43.9,29.80,West,277,2.0,5.0,96,0.00,,,0.13,Wunderground v.1.15,2013-04-01 02:18:00,
2013-03-31 22:24:00,44.9,43.8,29.80,WSW,238,2.0,6.0,96,0.00,,,0.13,Wunderground v.1.15,2013-04-01 02:24:00,
2013-03-31 22:30:00,44.8,43.7,29.79,WSW,254,2.0,5.0,96,0.00,,,0.13,Wunderground v.1.15,2013-04-01 02:30:00,
2013-03-31 22:36:00,44.6,43.3,29.79,West,271,2.0,5.0,95,0.00,,,0.13,Wunderground v.1.15,2013-04-01 02:36:00,
2013-03-31 22:42:00,44.6,43.3,29.79,WNW,285,2.0,5.0,95,0.00,,,0.13,Wunderground v.1.15,2013-04-01 02:42:00,
2013-03-31 22:48:00,44.6,43.3,29.79,WSW,257,2.0,6.0,95,0.00,,,0.13,Wunderground v.1.15,2013-04-01 02:48:00,
2013-03-31 22:54:00,44.6,43.3,29.78,SSW,200,3.0,9.0,95,0.00,,,0.13,Wunderground v.1.15,2013-04-01 02:54:00,
2013-03-31 22:59:00,44.7,43.4,29.78,SW,232,3.0,9.0,95,0.00,,,0.13,Wunderground v.1.15,2013-04-01 02:59:00,
2013-03-31 23:05:00,44.6,43.3,29.78,West,263,3.0,5.0,95,0.00,,,0.13,Wunderground v.1.15,2013-04-01 03:05:00,
2013-03-31 23:10:00,44.5,43.2,29.78,WSW,250,2.0,2.0,95,0.00,,,0.13,Wunderground v.1.15,2013-04-01 03:10:00,
2013-03-31 23:16:00,44.1,42.8,29.77,North,10,1.0,5.0,95,0.00,,,0.13,Wunderground v.1.15,2013-04-01 03:16:00,
2013-03-31 23:21:00,44.1,42.8,29.77,West,260,2.0,5.0,95,0.00,,,0.13,Wunderground v.1.15,2013-04-01 03:21:00,
2013-03-31 23:26:00,44.1,42.8,29.77,SSW,192,2.0,5.0,95,0.00,,,0.13,Wunderground v.1.15,2013-04-01 03:26:00,
2013-03-31 23:32:00,44.0,42.7,29.77,SSW,209,2.0,5.0,95,0.00,,,0.13,Wunderground v.1.15,2013-04-01 03:32:00,
2013-03-31 23:38:00,44.0,42.7,29.77,WSW,248,2.0,7.0,95,0.00,,,0.13,Wunderground v.1.15,2013-04-01 03:38:00,
2013-03-31 23:44:00,44.0,42.7,29.77,West,261,2.0,5.0,95,0.00,,,0.13,Wunderground v.1.15,2013-04-01 03:44:00,
2013-03-31 23:50:00,44.0,42.9,29.77,WSW,240,3.0,3.0,96,0.00,,,0.13,Wunderground v.1.15,2013-04-01 03:50:00,
2013-03-31 23:55:00,43.8,42.5,29.76,West,265,3.0,5.0,95,0.00,,,0.13,Wunderground v.1.15,2013-04-01 03:55:00,